Location: Howard City Library
(37.4684°N, 96.2639°W)
Time: 08:41:26
(UTC+00:00)

STARLINK-1025 - Pass Details

Date: 18 February 2020
Orbit: 548 x 550 km, 53.0° (Epoch: 04 April)

Event Time Altitude Azimuth Distance (km) Brightness Sun altitude
Rises 01:39:04 0° 240° (WSW) 2,709 8.2 -19.0°
Reaches altitude 10° 01:41:21 10° 246° (WSW) 1,819 7.2 -19.5°
Maximum altitude 01:45:22 50° 322° (NW) 705 4.3 -20.3°
Enters shadow 01:47:03 30° 21° (NNE) 993 4.7 -20.6°
